This is the latest recevied weather packets stored in our database for station/object KD2RHT-13. If no packets are shown the sender has not sent any weather packets the latest 10 day(s).
| Time | Temp. | Humidity | Pressure | Rain* | Wind** | Luminosity | Snow |
|---|---|---|---|---|---|---|---|
| 1777913220 | 21.11° C | 50% | 1008 hPa | 0 mm | - | 722 W/m² | - |
| 1777912916 | 20.56° C | 57% | 1008 hPa | 0 mm | - | 707 W/m² | - |
| 1777912613 | 20.56° C | 55% | 1008 hPa | 0 mm | - | 716 W/m² | - |
| 1777912309 | 20° C | 51% | 1008 hPa | 0 mm | - | 729 W/m² | - |
| 1777912005 | 19.44° C | 53% | 1008 hPa | 0 mm | - | 727 W/m² | - |
| 1777911398 | 19.44° C | 53% | 1008 hPa | 0 mm | - | 719 W/m² | - |
| 1777911096 | 19.44° C | 54% | 1008.3 hPa | 0 mm | - | 738 W/m² | - |
| 1777910793 | 19.44° C | 52% | 1008.3 hPa | 0 mm | - | 735 W/m² | - |
| 1777908674 | 18.89° C | 52% | 1008.7 hPa | 0 mm | - | 824 W/m² | - |
| 1777908370 | 18.33° C | 56% | 1009 hPa | 0 mm | - | 807 W/m² | - |
| 1777907762 | 17.78° C | 57% | 1008.7 hPa | 0 mm | - | 791 W/m² | - |
| 1777905941 | 17.22° C | 56% | 1008.7 hPa | 0 mm | - | 336 W/m² | - |
| 1777905335 | 17.22° C | 56% | 1008.7 hPa | 0 mm | - | 792 W/m² | - |
| 1777901699 | 15.56° C | 56% | 1009 hPa | 0 mm | - | 604 W/m² | - |
| 1777901093 | 15° C | 58% | 1009.4 hPa | 0 mm | - | 516 W/m² | - |
| 1777900790 | 14.44° C | 58% | 1009.4 hPa | 0 mm | - | 551 W/m² | - |
| 1777900488 | 13.33° C | 60% | 1009.4 hPa | 0 mm | - | 396 W/m² | - |
| 1777899881 | 13.33° C | 60% | 1009.4 hPa | 0 mm | - | 182 W/m² | - |
| 1777899578 | 12.78° C | 60% | 1009.4 hPa | 0 mm | - | 101 W/m² | - |
| 1777899276 | 12.78° C | 60% | 1009.7 hPa | 0 mm | - | 68 W/m² | - |
| 1777898670 | 12.78° C | 60% | 1009.4 hPa | 0 mm | - | 68 W/m² | - |
| 1777898366 | 12.78° C | 60% | 1009.4 hPa | 0 mm | - | 94 W/m² | - |
| 1777898065 | 12.78° C | 61% | 1009.4 hPa | 0 mm | - | 94 W/m² | - |
| 1777897760 | 12.78° C | 60% | 1009.4 hPa | 0 mm | - | 107 W/m² | - |
| 1777897457 | 12.78° C | 60% | 1009.4 hPa | 0 mm | - | 88 W/m² | - |
* Rain latest hour (hover to see other rain measurements)
** Current wind speed in m/s (hover to see current wind gust speed)